Bryce Canyon, UT

2:45 PM MST on December 06, 2019 (GMT -0700)
Bryce Canyon

Weather History for KBCE - October, 2019

Change the Weather History Date:

Friday, October 11, 2019

  Actual Average Record
Temperature  
Mean Temperature 29 °F -  
Max Temperature 51 °F 61 °F 73 °F (1965)
Min Temperature 7 °F 28 °F 7 °F (2019)
Degree Days  
Heating Degree Days 36    
Moisture  
Dew Point -6 °F    
Average Humidity 32    
Maximum Humidity 64    
Minimum Humidity 8    
Precipitation  
Precipitation 0.00 in - - ()
Sea Level Pressure  
Sea Level Pressure 30.30 in    
Wind  
Wind Speed 9 mph (West)    
Max Wind Speed 17 mph    
Max Gust Speed 20 mph    
Visibility 10 miles    
Events      
Averages and records for this station are not official NWS values.
T = Trace of Precipitation, MM = Missing Value Source: NWS Daily Summary

Daily Weather History Graph

Daily Weather History Graph

Search for Another Location

Airport or City:

Astronomy

Oct. 11, 2019 Rise Set
Actual Time 7:33 AM MDT 6:57 PM MDT
Civil Twilight 7:06 AM MDT 7:23 PM MDT
Nautical Twilight 6:36 AM MDT 7:53 PM MDT
Astronomical Twilight 6:05 AM MDT 8:24 PM MDT
Moon 6:24 PM MDT (10/11) 5:21 AM MDT (10/11)
Length of Visible Light 12h 16m
Length of Day
11h 24m
Waxing Gibbous, 96% of the Moon is Illuminated
Oct 11
Waxing Gibbous
Oct 13
Full
Oct 21
Last Quarter
Oct 27
New
Nov 4
First Quarter

Hourly Weather History & Observations

Time (MDT) Temp. Windchill Dew Point Humidity Pressure Visibility Wind Dir Wind Speed Gust Speed Precip Events Conditions
12:53 AM 24.1 °F 10.6 °F 1.9 °F 38% 30.24 in 10.0 mi North 17.3 mph - N/A   Clear
1:53 AM 16.0 °F 2.9 °F 1.0 °F 52% 30.29 in 10.0 mi West 11.5 mph - N/A   Clear
2:53 AM 16.0 °F 6.3 °F 1.9 °F 54% 30.30 in 10.0 mi West 6.9 mph - N/A   Clear
3:53 AM 10.0 °F 3.6 °F -0.9 °F 61% 30.33 in 10.0 mi NNW 3.5 mph - N/A   Clear
4:53 AM 9.0 °F -3.2 °F -2.0 °F 61% 30.34 in 10.0 mi West 8.1 mph - N/A   Clear
5:53 AM 7.0 °F -4.5 °F -2.9 °F 64% 30.37 in 10.0 mi WSW 6.9 mph - N/A   Clear
6:53 AM 7.0 °F -1.7 °F -2.9 °F 64% 30.38 in 10.0 mi NNW 4.6 mph - N/A   Clear
7:53 AM 8.1 °F -4.3 °F -2.9 °F 61% 30.42 in 10.0 mi West 8.1 mph - N/A   Clear
8:53 AM 21.0 °F 16.2 °F -0.0 °F 40% 30.39 in 10.0 mi WNW 3.5 mph - N/A   Clear
9:53 AM 28.9 °F 23.9 °F 1.0 °F 30% 30.38 in 10.0 mi Variable 4.6 mph - N/A   Clear
10:53 AM 36.0 °F 33.3 °F -4.0 °F 18% 30.32 in 10.0 mi East 3.5 mph - N/A   Clear
11:53 AM 45.0 °F 41.8 °F -11.9 °F 9% 30.26 in 10.0 mi NE 5.8 mph - N/A   Clear
12:53 PM 46.9 °F - -11.0 °F 9% 30.24 in 10.0 mi SSE 11.5 mph 17.3 mph N/A   Clear
1:53 PM 48.0 °F - -8.0 °F 10% 30.26 in 10.0 mi SSE 10.4 mph 18.4 mph N/A   Clear
2:53 PM 48.9 °F - -9.0 °F 9% 30.24 in 10.0 mi SSE 15.0 mph 19.6 mph N/A   Clear
3:53 PM 51.1 °F - -9.9 °F 8% 30.24 in 10.0 mi SSE 9.2 mph - N/A   Clear
4:53 PM 50.0 °F - -11.0 °F 8% 30.23 in 10.0 mi ESE 6.9 mph - N/A   Clear
5:53 PM 48.9 °F - -9.9 °F 8% 30.23 in 10.0 mi SSE 8.1 mph - N/A   Clear
6:53 PM 44.1 °F - -9.9 °F 10% 30.25 in 10.0 mi Calm Calm - N/A   Clear
7:53 PM 26.1 °F 19.4 °F -9.9 °F 20% 30.35 in 10.0 mi West 5.8 mph - N/A   Clear
8:53 PM 19.9 °F 11.1 °F -9.9 °F 26% 30.30 in 10.0 mi WSW 6.9 mph - N/A   Clear
9:53 PM 14.0 °F 6.5 °F -6.0 °F 41% 30.30 in 10.0 mi WSW 4.6 mph - N/A   Clear
10:53 PM 15.1 °F 7.7 °F -11.0 °F 31% 30.25 in 10.0 mi NW 4.6 mph - N/A   Clear
11:53 PM 10.9 °F 2.9 °F -11.9 °F 35% 30.23 in 10.0 mi West 4.6 mph - N/A   Clear